Regional Weather Roundup
Issued by NWS

Home | Current Version | Previous Version | Text Only | Print | Product List | Glossary On
Versions: 1 2 3 4 5 6 7 8 9 10 11 12 13 14 15 16 17 18 19 20 21 22 23 24 25 26 27 28 29 30 31 32 33 34 35 36 37 38 39 40 41 42 43 44 45 46 47 48 49 50
000
ASUS43 KLSX 230310
RWRMO

WEATHER SUMMARY FOR MISSOURI
NATIONAL WEATHER SERVICE SPRINGFIELD MO
900 PM CST SUN JAN 22 2017

NOTE: "FAIR" INDICATES FEW OR NO CLOUDS BELOW 12,000 FEET WITH NO
       SIGNIFICANT WEATHER AND/OR OBSTRUCTIONS TO VISIBILITY.
       CURRENT SKY AND/OR WEATHER CONDITIONS ARE NOT AVAILABLE FOR
       CHILLICOTHE AND FARMINGTON.

MOZ001>031-035>038-043-044-053-054-230400-
...NORTHERN AND WESTERN MISSOURI...

CITY           SKY/WX    TMP DP  RH WIND       PRES   REMARKS
KANSAS CTY INT CLOUDY    38  32  79 NW13      29.84S WCI  30
KANSAS C DTWN  CLOUDY    40  34  79 NW10      29.85R
LEE`S SUMMIT   CLOUDY    38  34  85 NW12      29.83S
ST JOSEPH      CLOUDY    37  35  92 NW6       29.87R
CHILLICOTHE      N/A     39  35  86 NW8       29.82R
KIRKSVILLE     CLOUDY    38  36  92 NW8       29.79R

$$
MOZ066>068-077>081-088>096-101>105-230400-
...SOUTHWEST MISSOURI...

CITY           SKY/WX    TMP DP  RH WIND       PRES   REMARKS
SPRINGFIELD    CLOUDY    36  34  92 NW17      29.80R WCI  26
JOPLIN         CLOUDY    37  35  92 N9        29.86R
BRANSON        CLOUDY    41  39  93 NW17G26   29.75R

$$
MOZ032>034-039>042-045>050-055>058-069>072-230400-
...CENTRAL MISSOURI...

CITY           SKY/WX    TMP DP  RH WIND       PRES   REMARKS
COLUMBIA       CLOUDY    41  35  79 N17       29.77R
JEFFERSON CITY CLOUDY    41  36  82 NW7       29.78R
ROLLA          CLOUDY    39  36  89 NW17G26   29.73R WCI  30
SEDALIA        CLOUDY    40  37  89 NW13      29.82R
WHITEMAN AFB   CLOUDY    39  39 100 NW14      29.81R
WARRENSBURG    CLOUDY    37  34  87 NW9       29.83R
OSAGE BEACH    CLOUDY    39  36  89 VRB7      29.79

$$
MOZ051-052-059>065-230400-
...EAST CENTRAL MISSOURI...

CITY           SKY/WX    TMP DP  RH WIND       PRES   REMARKS
ST LOUIS INTL  MOCLDY    44  37  76 NW13      29.71R
SPIRIT OF STL  CLOUDY    43  37  79 NW14      29.72R
ST CHARLES     CLOUDY    43  38  82 NW13      29.71R

$$
MOZ072>076-082>087-097>100-106>115-230400-
...SOUTH CENTRAL AND SOUTHEAST MISSOURI...

CITY           SKY/WX    TMP DP  RH WIND       PRES   REMARKS
CAPE GIRARDEAU CLOUDY    51  45  79 N24G36    29.54R
FARMINGTON     CLOUDY    46  38  73 N20G29    29.64R
POPLAR BLUFF   PTCLDY    53  46  77 N21G26    29.54R
WEST PLAINS    CLOUDY    43  38  82 N18G25    29.69R

$$



USA.gov is the U.S. government's official web portal to all federal, state and local government web resources and services.